User: anonymous   Login
Location: Cheching
(60.0667°N, 164.2167°W)
Time: 16:29:12
(UTC+00:00)
Language:

AIST 2D - Orbit

View from above orbital plane
View from above orbital plane
View from above satellite
View from above satellite

Ground track
Ground track

The orbit data is extracted from the following two-line orbital elements,

1 41465U 16026B   21128.21134914  .00001800  00000-0  53270-4 0  9994
2 41465  97.1124  13.6927 0011658 150.2037 324.6805 15.36095989281254
Epoch (UTC): 08 May 2021 05:04:20
Eccentricity: 0.0011658
inclination: 97.1124°
perigee height: 450 km
apogee height: 465 km
right ascension of ascending node: 13.6927°
argument of perigee: 150.2037°
revolutions per day: 15.36095989
mean anomaly at epoch: 324.6805°
orbit number at epoch: 28125

The dashed part of the orbit path shows where the satellite is in the earth's shadow,  

DLR